Location: Newark
(49.8348°N, 24.0280°E)
Time: 15:07:27
(UTC+00:00)

Transit 2A - Pass Details

Date: 21 January 2020
Orbit: 599 x 959 km, 66.7° (Epoch: 25 February)

Event Time Altitude Azimuth Distance (km) Brightness Sun altitude
Rises 05:24:18 0° 309° (NW) 2,991 - -7.6°
Exits shadow 05:26:58 - 291° (WNW) 2,223 7.7 -7.2°
Reaches altitude 10° 05:27:22 10° 287° (WNW) 2,135 7.6 -7.1°
Maximum altitude 05:30:09 15° 251° (WSW) 1,848 7.6 -6.7°
Drops below altitude 10° 05:33:04 10° 216° (SW) 2,253 8.3 -6.3°
Sets 05:36:28 0° 195° (SSW) 3,255 9.4 -5.8°
